Location: Владивосток
(43.1151°N, 131.8856°E)
Time: 13:03:25
(UTC+10:00)

X-37B - Visible Passes

Search period start: 20 January 2022 00:00
Search period end: 30 January 2022 00:00
Orbit: 334 x 337 km, 45.0° (Epoch: 11 January)

Date Brightness Start Highest point End Pass type
(mag) Time Alt. Az. Time Alt. Az. Time Alt. Az.
26 Jan 2.3 19:42:00 10° SSW 19:43:49 18° SSE 19:43:49 18° SSE visible
27 Jan 1.6 20:01:34 10° SW 20:03:36 33° S 20:03:36 33° S visible
28 Jan 2.4 18:47:27 10° SSW 18:49:26 17° SSE 18:51:27 10° ESE visible
28 Jan 2.3 20:21:47 10° WSW 20:23:20 29° WSW 20:23:20 29° WSW visible
29 Jan 1.1 19:07:00 10° SW 19:09:41 39° SSE 19:11:46 15° E visible
29 Jan 3.5 20:42:17 10° W 20:43:00 16° W 20:43:00 16° W visible
